Regional Weather Roundup
Issued by NWS

Home | Current Version | Previous Version | Text Only | Print | Product List | Glossary On
Versions: 1 2 3 4 5 6 7 8 9 10 11 12 13 14 15 16 17 18 19 20 21 22 23 24 25 26 27
000
ASUS45 KREV 202310
RWRNV
NEVADA REGIONAL WEATHER ROUNDUP
NATIONAL WEATHER SERVICE RENO NV
400 PM PDT SUN APR 20 2014

NOTE: "FAIR" INDICATES FEW OR NO CLOUDS BELOW 12,000 FEET WITH NO
SIGNIFICANT WEATHER AND/OR OBSTRUCTIONS TO VISIBILITY.

NVZ001-003-004-210000-
WESTERN NEVADA

CITY           SKY/WX    TMP DP  RH WIND       PRES   REMARKS
RENO           MOSUNNY   73   9   8 NE7G17    30.15F
CARSON CITY    FAIR      72  14  11 E9        30.16F
MINDEN         SUNNY     72  14  11 N5        30.16F
SLIDE MTN        N/A     45  21  39 SE8         N/A
PYRAMID LAKE     N/A     61 N/A N/A VRB6        N/A
FALLON         PTSUNNY   72  19  13 N6        30.15F
LOVELOCK       SUNNY     73  14  10 NE10      30.15F
HAWTHORNE      SUNNY     72  23  16 W12       30.14F
$$

NVZ002-CAZ072-073-210000-
NORTHERN AND CENTRAL SIERRA

CITY           SKY/WX    TMP DP  RH WIND       PRES   REMARKS
S. LAKE TAHOE  SUNNY     66   7  10 MISG      30.22F
TRUCKEE        MOSUNNY   64  14  14 N3        30.21F
SQUAW VLY 8000   N/A     54  16  22 CALM        N/A
BLUE CANYON    SUNNY     64  32  30 SW12G18   30.22S
MAMMOTH LAKES  FAIR      68  12  11 SW12      30.20F
BRIDGEPORT     FAIR      68   5   8 S12       30.19F
$$

NVZ030-031-036-210000-
NORTHERN NEVADA

CITY           SKY/WX    TMP DP  RH WIND       PRES   REMARKS
ELKO           MOSUNNY   65  13  13 W10G18    30.18F
WINNEMUCCA     SUNNY     67  10  11 VRB7      30.19F
WENDOVER       SUNNY     72  23  16 SE9       30.12F
$$

NVZ035-037-210000-
CENTRAL NEVADA

CITY           SKY/WX    TMP DP  RH WIND       PRES   REMARKS
ELY            SUNNY     69  16  13 NW10G23   30.16F
EUREKA           N/A     67  20  16 NE5       30.17F
$$

NVZ013-014-210000-
SOUTH CENTRAL NEVADA

CITY           SKY/WX    TMP DP  RH WIND       PRES   REMARKS
TONOPAH        SUNNY     74  10   8 NW13G22   30.15F
$$

NVZ017-020-022-210000-
SOUTHERN NEVADA

CITY           SKY/WX    TMP DP  RH WIND       PRES   REMARKS
LAS VEGAS      MOSUNNY   89  28  11 S13       29.90F
N. LAS VEGAS   MOSUNNY   89  30  12 SW7G16    29.93F
NELLIS AFB     SUNNY     90  35  14 E2        29.92F
HENDERSON      SUNNY     89  32  13 VRB6      29.97F
MERCURY        SUNNY     84  28  13 SW16      30.02F
$$



USA.gov is the U.S. government's official web portal to all federal, state and local government web resources and services.